www.pogodaiklimat.ru

Погода и климат >> Архив погоды >> Иран >> Бендер-Дейер


ПОГОДА в Бендер-Дейере

  • Прогноз погоды в Бендер-Дейере
  • Монитор погоды в Бендер-Дейере

АРХИВ ПОГОДЫ в Бендер-Дейере

Время (UTC), дата Ветер
(напр.,м/с)
 
Видим.   Явления Облачность Т
(С)
Тd
(С)
f
(%)
Тe
(С)
Тes
(С)
Комфортность P
(гПа)
Po
(гПа)
Тmin
(С)
Tmax
(С)
R
(мм)
R24
(мм)
S
(см)
00 13.08 С 1 8000 м пыль ясно +33.8 +28.0 72 +55 +55 опасность
перегрева
996.4 996.0
03 13.08 ЮВ 6 6000 м дымка ясно +34.1 +31.4 86 +66 +67 опасность
перегрева
998.3 997.9 +33.3
06 13.08 ЮВ 3 6000 м мгла 3/3 1050 м
[Sc]
+35.3 +30.1 75 +63 +71 опасность
перегрева
999.5 999.1
09 13.08 Ю 5 6000 м мгла 8/0
[Ac As]
+35.7 +31.4 79 +68 +73 опасность
перегрева
999.2 998.8
12 13.08 Ю 4 6000 м мгла 8/1 1000 м
[Sc Ac As]
+36.0 +30.1 72 +63 +66 опасность
перегрева
998.5 998.1
15 13.08 Ю 3 7000 м мгла ясно +35.4 +28.8 69 +58 +58 опасность
перегрева
998.7 998.3 +36.1
18 13.08 ЮВ 1 7000 м мгла 5/0
[Ac trans]
+34.7 +29.5 74 +60 +60 опасность
перегрева
999.4 999.0
21 13.08 С 1 7000 м мгла 5/0
[Ac trans]
+34.8 +26.6 63 +52 +52 опасность
перегрева
998.8 998.4
00 14.08 СВ 1 7000 м мгла ясно +33.4 +26.9 69 +51 +51 опасность
перегрева
998.2 997.8
03 14.08 штиль 0 7000 м мгла 8/1 1050 м
[Sc Ac As]
+33.2 +26.4 68 +50 +51 опасность
перегрева
999.5 999.1 +32.8
06 14.08 ЮЗ 2 7000 м пыль ясно +35.6 +30.1 73 +63 +76 опасность
перегрева
1001.4 1001.0
12 14.08 ЮЗ 3 8000 м пыль ясно +36.9 +28.9 64 +60 +68 опасность
перегрева
999.7 999.3
15 14.08 ЮЗ 2 8000 м пыль ясно +36.1 +28.7 66 +59 +59 опасность
перегрева
999.8 999.4 +37.0
18 14.08 З 1 8000 м пыль ясно +36.6 +27.5 60 +56 +56 опасность
перегрева
1000.1 999.7
21 14.08 ЮВ 3 8000 м дымка ясно +34.9 +30.9 80 +65 +65 опасность
перегрева
999.5 999.1
00 15.08 ЮВ 3 7000 м мгла ясно +33.4 +26.7 68 +51 +51 опасность
перегрева
999.4 999.0
03 15.08 СВ 2 7000 м мгла ясно +33.2 +26.4 68 +50 +51 опасность
перегрева
999.5 999.1 +32.8
06 15.08 ЮВ 2 7000 м мгла ясно +35.7 +30.1 73 +63 +77 опасность
перегрева
1001.8 1001.4
09 15.08 Ю 5 7000 м мгла ясно +36.0 +31.3 77 +68 +79 опасность
перегрева
1002.3 1001.9
12 15.08 ЮЗ 3 7000 м мгла ясно +36.3 +30.1 71 +64 +71 опасность
перегрева
1000.2 999.8
15 15.08 Ю 2 7000 м дымка ясно +35.0 +31.0 80 +66 +66 опасность
перегрева
999.7 999.3 +36.6
18 15.08 З 1 7000 м мгла 9/3 1050 м
[Sc Ac As]
+35.1 +29.0 71 +59 +59 опасность
перегрева
1001.4 1001.0
21 15.08 З 2 7000 м мгла 5/0
[Ac As]
+34.5 +30.3 79 +63 +63 опасность
перегрева
1000.8 1000.4
00 16.08 С 1 7000 м мгла ясно +33.6 +27.3 70 +53 +53 опасность
перегрева
999.8 999.4
03 16.08 З 2 7000 м мгла ясно +34.0 +26.7 66 +51 +52 опасность
перегрева
999.8 999.4 +32.8
06 16.08 Ю 3 7000 м пыль ясно +36.3 +30.1 71 +64 +75 опасность
перегрева
1000.7 1000.3
09 16.08 ЮЗ 3 7000 м пыль ясно +37.4 +31.4 72 +69 +86 опасность
перегрева
999.9 999.5
12 16.08 ЮЗ 3 8000 м пыль ясно +37.0 +30.1 68 +64 +71 опасность
перегрева
998.7 998.3
15 16.08 ЮВ 3 8000 м пыль ясно +36.5 +29.0 66 +60 +60 опасность
перегрева
998.2 997.8 +38.1
18 16.08 Ю 2 8000 м пыль ясно +35.5 +28.9 69 +59 +59 опасность
перегрева
999.6 999.2
21 16.08 ЮВ 2 7000 м пыль ясно +34.9 +29.3 73 +60 +60 опасность
перегрева
998.4 998.0
00 17.08 штиль 0 7000 м пыль ясно +34.0 +29.8 79 +60 +60 опасность
перегрева
997.8 997.4
03 17.08 З 2 7000 м пыль ясно +33.6 +29.6 80 +59 +60 опасность
перегрева
997.9 997.5 +33.4
06 17.08 ЮВ 2 7000 м мгла ясно +36.5 998.6 998.2
09 17.08 Ю 3 7000 м мгла ясно +37.8 +28.3 59 +59 +76 опасность
перегрева
998.6 998.2
12 17.08 Ю 4 7000 м мгла ясно +37.2 +30.1 67 +64 +70 опасность
перегрева
997.8 997.4
15 17.08 ЮВ 4 7000 м мгла ясно +36.0 +28.8 67 +59 +59 опасность
перегрева
997.3 996.9 +38.1
18 17.08 СВ 1 7000 м мгла ясно +35.6 +27.4 63 +55 +55 опасность
перегрева
998.4 998.0
21 17.08 С 2 8000 м мгла ясно +35.5 +20.2 41 +42 +42 опасность
перегрева
998.5 998.1
00 18.08 С 1 8000 м мгла ясно +33.5 +18.8 42 +38 +38 очень
душно
998.2 997.8
03 18.08 СЗ 1 8000 м мгла ясно +32.9 +19.3 45 +38 +40 очень
душно
999.3 998.9 +31.6
06 18.08 ЮВ 2 8000 м пыль ясно +37.2 +30.1 67 +64 +77 опасность
перегрева
1000.7 1000.3
09 18.08 Ю 6 7000 м пыль ясно +37.1 +26.2 54 +53 +61 опасность
перегрева
1001.3 1000.9
12 18.08 Ю 3 7000 м пыль ясно +37.2 +30.1 67 +64 +71 опасность
перегрева
1000.8 1000.4
15 18.08 ЮВ 1 7000 м пыль ясно +35.4 +25.8 58 +51 +51 опасность
перегрева
1001.4 1001.0 +38.0
18 18.08 ЮЗ 3 7000 м пыль ясно +37.1 +24.9 50 +50 +50 опасность
перегрева
1001.3 1000.9
21 18.08 З 2 7000 м пыль ясно +36.6 +18.1 34 +40 +40 очень
душно
1001.0 1000.6
00 19.08 СВ 1 8000 м пыль ясно +32.0 +18.2 44 +37 +37 очень
душно
1000.9 1000.5
03 19.08 С 2 8000 м пыль ясно +32.9 +17.5 40 +37 +38 очень
душно
1002.5 1002.1 +32.0
06 19.08 ЮВ 5 7000 м пыль ясно +36.3 +30.1 71 +64 +71 опасность
перегрева
1003.9 1003.5
09 19.08 Ю 4 7000 м пыль ясно +36.4 +31.2 75 +68 +82 опасность
перегрева
1003.9 1003.5
12 19.08 Ю 3 7000 м пыль ясно +36.9 +30.1 68 +64 +71 опасность
перегрева
1003.2 1002.8
15 19.08 ЮЗ 1 7000 м пыль ясно +35.2 +28.1 67 +56 +56 опасность
перегрева
1003.4 1003.0 +37.0
18 19.08 Ю 1 7000 м пыль ясно +35.3 +27.4 64 +54 +54 опасность
перегрева
1004.8 1004.4
21 19.08 С 1 7000 м пыль ясно +33.8 +26.0 64 +50 +50 опасность
перегрева
1004.0 1003.6

 

Местоположение метеостанции Бендер-Дейер (Иран): широта 27.83 долгота 51.93 высота над уровнем моря 4 м.

В архиве по умолчанию представлена погода в Бендер-Дейере за последнюю неделю. Архивные данные за месяц целиком и за предыдущие месяцы, начиная с января 2011 года, Вы можете получить, выбрав интересующий диапазон дат из раскрывающегося списка и нажав кнопку "Ввод!".


*Определитесь, кто Вы:
робот инопланетянин человек

Внимание! Время в таблицах - всемирное. Для получения местного времени необходимо прибавить поправку, которая равна 3.5 ч.

Смотрите также архив погоды в соседних городах и на ближайших метеорологических станциях:

Погода в Бушире (Иран) (163 км)
Погода в Бушир аэропорту (Иран) (167 км)
Погода в Ширазе (Иран) (198 км)
Погода в Фесе (Иран) (213 км)
Погода в Бахрейне (Бахрейн) (215 км)
Погода на Харке (Иран) (224 км)
Погода в Дахране (Саудовская Аравия) (246 км)
Погода на Острове Киш (Иран) (251 км)
Погода в Эд-Даммаме (Саудовская Аравия) (259 км)
Погода в Аэропорту Хамад (Катар) (287 км)

Пояснения к столбцам:

Ветер - указаны скорость ветра в м/с - средняя за 10 мин, порывы в срок и между сроками (в фигурных скобках) и направление, откуда дует ветер: С - северный, СВ - северо-восточный, В - восточный, ЮВ - юго-восточный, Ю - южный, ЮЗ - юго-западный, З - западный, СЗ - северо-западный.
Видимость - горизонтальная дальность видимости в метрах или километрах. При видимости от 1 до 10 км при отсутствии осадков обычно наблюдается дымка, при ухудшении видимости до 1 км и менее - туман. В сухую погоду видимость может ухудшаться дымом, пылью или мглою.
Явления - указаны атмосферные явления, наблюдавшиеся в срок или в последний час перед сроком; фигурными скобками обозначены явления, наблюдавшиеся между сроками (за 1-3 часа до срока); квадратными скобками обозначены град или гололедные отложения с указанием их диаметра в мм.
Облачность - указаны через наклонную черту общая и нижняя облачность в баллах и высота нижней границы облаков в метрах; квадратными скобками обозначены формы облаков: Ci - перистые, Cs - перисто-слоистые, Cc - перисто-кучевые, Ac - высококучевые, As - высокослоистые, Sc - слоисто-кучевые, Ns - слоисто-дождевые, Cu - кучевые, Cb - кучево-дождевые. Подробнее классификацию облаков см. в Атласе облаков (PDF).
T - Температура воздуха - температура, измеренная на высоте 2 м над землей.
Td - Температура точки росы - температура, при понижении до которой содержащийся в воздухе водяной пар достигнет насыщения.
f - Относительная влажность воздуха - влажноcть воздуха, измеренная на высоте 2 м над землей.
Te - Эффективная температура - температура, которую ощущает одетый по сезону человек в тени. Характеристика душности погоды. При расчете учитывается влияние влажности воздуха и скорости ветра на теплоощущения человека.
Tes - Эффективная температура на солнце - температура, которую ощущает человек, с поправкой на солнечный нагрев. Характеристика знойности погоды. Зависит от высоты солнца над горизонтом, облачности и скорости ветра. Ночью, в пасмурную погоду, а также при ветре 12 м/с и более поправка равна нулю.
P - Атмосферное давление - приведенное к уровню моря атмосферное давление.
Po - Атмосферное давление - измеренное на уровне метеостанции атмосферное давление.
Tmin - Минимальная температура - минимум температуры воздуха на высоте 2 м над землей.
Tmax - Максимальная температура - максимум температуры воздуха на высоте 2 м над землей.
R - Количество осадков - Количество выпавших осадков за период времени, мм. При наведении курсора мыши на число - период времени, за который выпало указанное количество осадков.
R24 - Количество осадков - Количество выпавших осадков за 24 часа, мм.
S - Снежный покров - Высота снежного покрова, см. При наведении курсора мыши на число - состояние снежного покрова и степень покрытия местности в баллах.